| time (UTC) | temp C | wind direction | speed KPH | gust KPH | rain 1hr cm | rain 24hr cm | rain mn cm | humidity % | barometer mb |
| 20260505003546 | 16 | 300 | 0.0 | 1.6 | 0.00 | 0.00 | 0.00 | 50 | |
| 20260505002546 | 17 | 116 | 0.0 | 0.0 | 0.00 | 0.00 | 0.00 | 49 | |
| 20260505001547 | 17 | 357 | 1.6 | 4.8 | 0.00 | 0.00 | 0.00 | 48 | |
| 20260505000607 | 17 | 92 | 1.6 | 4.8 | 0.00 | 0.00 | 0.00 | 47 | |
| 20260504235547 | 17 | 335 | 1.6 | 3.2 | 0.00 | 0.00 | 0.00 | 46 | |
| 20260504234549 | 18 | 188 | 0.0 | 3.2 | 0.00 | 0.00 | 0.00 | 45 | |
| 20260504233547 | 18 | 250 | 0.0 | 3.2 | 0.00 | 0.00 | 0.00 | 46 | |
| 20260504232547 | 18 | 220 | 1.6 | 3.2 | 0.00 | 0.00 | 0.00 | 45 | |
| 20260504231548 | 18 | 224 | 1.6 | 3.2 | 0.00 | 0.00 | 0.00 | 45 | |
| 20260504230547 | 19 | 223 | 0.0 | 3.2 | 0.00 | 0.00 | 0.00 | 43 | |
| 20260504225548 | 20 | 46 | 1.6 | 4.8 | 0.00 | 0.00 | 0.00 | 42 | |
| 20260504224608 | 20 | 259 | 3.2 | 8.0 | 0.00 | 0.00 | 0.00 | 40 | |
| 20260504223548 | 20 | 224 | 1.6 | 12.9 | 0.00 | 0.00 | 0.00 | 42 | |
| 20260504222550 | 20 | 242 | 1.6 | 3.2 | 0.00 | 0.00 | 0.00 | 41 | |
| 20260504221550 | 20 | 274 | 1.6 | 4.8 | 0.00 | 0.00 | 0.00 | 43 | |
| 20260504220549 | 20 | 160 | 1.6 | 8.0 | 0.00 | 0.00 | 0.00 | 40 | |
| 20260504215609 | 20 | 306 | 3.2 | 9.7 | 0.00 | 0.00 | 0.00 | 39 | |
| 20260504214549 | 21 | 284 | 1.6 | 4.8 | 0.00 | 0.00 | 0.00 | 41 | |
| 20260504213610 | 21 | 6 | 1.6 | 6.4 | 0.00 | 0.00 | 0.00 | 39 | |
| 20260504212549 | 21 | 227 | 3.2 | 9.7 | 0.00 | 0.00 | 0.00 | 39 | |
| 20260504211550 | 21 | 311 | 3.2 | 6.4 | 0.00 | 0.00 | 0.00 | 39 | |
| 20260504210550 | 21 | 278 | 1.6 | 6.4 | 0.00 | 0.00 | 0.00 | 39 | |
| 20260504205551 | 21 | 287 | 3.2 | 6.4 | 0.00 | 0.00 | 0.00 | 38 | |
| 20260504204551 | 22 | 328 | 3.2 | 12.9 | 0.00 | 0.00 | 0.00 | 38 | |
| 20260504203551 | 21 | 302 | 1.6 | 4.8 | 0.00 | 0.00 | 0.00 | 38 | |
| 20260504202550 | 22 | 286 | 3.2 | 9.7 | 0.00 | 0.00 | 0.00 | 38 | |
| 20260504201551 | 21 | 245 | 3.2 | 8.0 | 0.00 | 0.00 | 0.00 | 39 | |
| 20260504200611 | 22 | 311 | 4.8 | 11.3 | 0.00 | 0.00 | 0.00 | 38 | |
| 20260504195552 | 22 | 280 | 3.2 | 8.0 | 0.00 | 0.00 | 0.00 | 37 | |
| 20260504194553 | 21 | 286 | 3.2 | 9.7 | 0.00 | 0.00 | 0.00 | 38 | |
| 20260504193632 | 21 | 274 | 3.2 | 8.0 | 0.00 | 0.00 | 0.00 | 38 | |
| 20260504192552 | 21 | 235 | 3.2 | 12.9 | 0.00 | 0.00 | 0.00 | 38 | |
| 20260504191552 | 21 | 185 | 4.8 | 11.3 | 0.00 | 0.00 | 0.00 | 38 | |
| 20260504190552 | 20 | 215 | 1.6 | 6.4 | 0.00 | 0.00 | 0.00 | 38 | |
| 20260504185552 | 20 | 269 | 1.6 | 8.0 | 0.00 | 0.00 | 0.00 | 38 | |
| 20260504184552 | 20 | 260 | 3.2 | 8.0 | 0.00 | 0.00 | 0.00 | 38 | |
| 20260504183553 | 21 | 275 | 3.2 | 14.5 | 0.00 | 0.00 | 0.00 | 37 | |
| 20260504182553 | 21 | 331 | 3.2 | 14.5 | 0.00 | 0.00 | 0.00 | 37 | |
| 20260504181553 | 21 | 164 | 4.8 | 12.9 | 0.00 | 0.00 | 0.00 | 37 | |
| 20260504180553 | 22 | 274 | 4.8 | 12.9 | 0.00 | 0.00 | 0.00 | 37 | |
| 20260504175553 | 21 | 279 | 3.2 | 8.0 | 0.00 | 0.00 | 0.00 | 38 | |
| 20260504174553 | 21 | 148 | 3.2 | 9.7 | 0.00 | 0.00 | 0.00 | 38 | |
| 20260504173554 | 21 | 177 | 4.8 | 12.9 | 0.00 | 0.00 | 0.00 | 37 | |
| 20260504172555 | 21 | 283 | 4.8 | 11.3 | 0.00 | 0.00 | 0.00 | 37 | |
| 20260504171554 | 21 | 258 | 4.8 | 11.3 | 0.00 | 0.00 | 0.00 | 38 | |
| 20260504170555 | 21 | 295 | 4.8 | 9.7 | 0.00 | 0.00 | 0.00 | 39 | |
| 20260504150556 | 18 | 296 | 3.2 | 11.3 | 0.00 | 0.00 | 0.00 | 43 | |
| 20260504140557 | 16 | 291 | 3.2 | 11.3 | 0.00 | 0.00 | 0.00 | 48 | |
| 20260504130558 | 13 | 281 | 3.2 | 6.4 | 0.00 | 0.00 | 0.00 | 53 | |
| 20260504110620 | 6 | 22 | 0.0 | 3.2 | 0.00 | 0.00 | 0.00 | 72 | |
| 20260504100603 | 5 | 331 | 1.6 | 3.2 | 0.00 | 0.00 | 0.00 | 75 | |
| 20260504081625 | 5 | 116 | 0.0 | 1.6 | 0.00 | 0.00 | 0.00 | 77 | |
| 20260504080606 | 5 | 0.0 | 0.0 | 0.00 | 0.00 | 0.00 | 71 | ||
| 20260504050629 | 1 | 342 | 1.6 | 1.6 | 0.00 | 0.00 | 0.00 | 87 | |
| 20260504045609 | 1 | 333 | 1.6 | 3.2 | 0.00 | 0.00 | 0.00 | 86 | |
| 20260504044609 | 1 | 337 | 1.6 | 1.6 | 0.00 | 0.00 | 0.00 | 86 | |
| 20260504043609 | 1 | 340 | 0.0 | 1.6 | 0.00 | 0.00 | 0.00 | 84 | |
| 20260504042609 | 1 | 334 | 0.0 | 1.6 | 0.00 | 0.00 | 0.00 | 84 | |
| 20260504041609 | 1 | 350 | 1.6 | 3.2 | 0.00 | 0.00 | 0.00 | 84 | |
| 20260504040609 | 1 | 343 | 1.6 | 1.6 | 0.00 | 0.00 | 0.00 | 87 | |
| 20260504035611 | 1 | 352 | 0.0 | 1.6 | 0.00 | 0.00 | 0.00 | 89 | |
| 20260504034610 | 1 | 328 | 0.0 | 1.6 | 0.00 | 0.00 | 0.00 | 89 | |
| 20260504033609 | 1 | 319 | 0.0 | 1.6 | 0.00 | 0.00 | 0.00 | 89 | |
| 20260504032650 | 1 | 310 | 0.0 | 1.6 | 0.00 | 0.00 | 0.00 | 89 | |
| 20260504031610 | 1 | 331 | 0.0 | 1.6 | 0.00 | 0.00 | 0.00 | 88 | |
| 20260504030610 | 1 | 300 | 0.0 | 1.6 | 0.00 | 0.00 | 0.00 | 88 | |
| 20260504025611 | 1 | 297 | 0.0 | 1.6 | 0.00 | 0.00 | 0.00 | 87 | |
| 20260504024611 | 2 | 291 | 0.0 | 1.6 | 0.00 | 0.00 | 0.00 | 87 | |
| 20260504023611 | 2 | 294 | 0.0 | 1.6 | 0.00 | 0.00 | 0.00 | 86 | |
| 20260504022612 | 2 | 300 | 0.0 | 1.6 | 0.00 | 0.00 | 0.00 | 85 | |
| 20260504021612 | 2 | 332 | 0.0 | 1.6 | 0.00 | 0.00 | 0.00 | 84 | |
| 20260504020631 | 2 | 304 | 0.0 | 1.6 | 0.00 | 0.00 | 0.00 | 83 | |
| 20260504015613 | 2 | 282 | 0.0 | 1.6 | 0.00 | 0.00 | 0.00 | 80 | |
| 20260504014612 | 3 | 313 | 0.0 | 1.6 | 0.00 | 0.00 | 0.00 | 80 | |
| 20260504013611 | 3 | 317 | 0.0 | 1.6 | 0.00 | 0.00 | 0.00 | 79 | |
| 20260504012614 | 3 | 310 | 0.0 | 1.6 | 0.00 | 0.00 | 0.00 | 78 | |
| 20260504011612 | 4 | 312 | 0.0 | 1.6 | 0.00 | 0.00 | 0.00 | 76 | |
| 20260504010611 | 4 | 0.0 | 0.0 | 0.00 | 0.00 | 0.00 | 74 | ||
| 20260504005611 | 5 | 292 | 0.0 | 3.2 | 0.00 | 0.00 | 0.00 | 73 | |
| 20260504004611 | 5 | 314 | 0.0 | 1.6 | 0.00 | 0.00 | 0.00 | 67 |